Location: Unspecified
(42.9300°N, 71.1866°W)
Time: 09:19:10
(UTC-04:00)

Okean 3 - Visible Passes

Search period start: 05 July 2015 00:00
Search period end: 15 July 2015 00:00
Orbit: 579 x 606 km, 82.5° (Epoch: 05 July)

Date Brightness Start Highest point End Pass type
(mag) Time Alt. Az. Time Alt. Az. Time Alt. Az.
05 Jul 4.7 00:24:34 10° NNW 00:28:16 30° W 00:28:17 30° W visible
05 Jul 4.4 22:56:18 10° N 23:00:05 32° ENE 23:00:44 31° E visible
06 Jul 5.3 00:34:06 10° NW 00:37:14 20° W 00:37:20 20° W visible
06 Jul 3.8 23:05:09 10° N 23:09:14 49° ENE 23:09:47 46° ESE visible
07 Jul 5.8 00:44:02 10° NW 00:46:11 13° W 00:46:23 13° W visible
07 Jul 3.3 23:14:07 10° N 23:18:20 78° E 23:18:51 66° SE visible
08 Jul 5.7 21:48:30 10° NE 21:49:28 11° ENE 21:50:40 10° E visible
08 Jul 3.5 23:23:12 10° NNW 23:27:23 67° W 23:27:56 59° SW visible
09 Jul 5.4 21:56:12 10° NNE 21:58:48 16° ENE 22:00:25 14° E visible
09 Jul 4.2 23:32:24 10° NNW 23:36:24 42° W 23:37:02 39° WSW visible
10 Jul 4.9 22:04:39 10° NNE 22:08:02 24° ENE 22:09:32 20° ESE visible
10 Jul 4.9 23:41:45 10° NNW 23:45:23 28° W 23:46:08 26° WSW visible
11 Jul 4.3 22:13:21 10° N 22:17:14 35° ENE 22:18:39 27° ESE visible
11 Jul 5.5 23:51:20 10° NW 23:54:20 19° W 23:55:15 17° WSW visible
12 Jul 3.7 22:22:13 10° N 22:26:22 54° E 22:27:46 36° SE visible
13 Jul 6.0 00:01:25 10° WNW 00:03:16 12° W 00:04:23 11° WSW visible
13 Jul 3.4 22:31:12 10° N 22:35:27 85° E 22:36:55 40° SSE visible
14 Jul 5.6 21:05:08 10° NE 21:06:38 12° ENE 21:08:21 10° E visible
14 Jul 3.8 22:40:18 10° NNW 22:44:29 61° W 22:46:05 35° SSW visible
